FW7576 Weather Reports


Display with metric or nautical units.
time (UTC)temp
F
wind
direction
speed
MPH
gust
MPH
rain 1hr
in
rain 24hr
in
rain mn
in
humidity
%
barometer
mb
20220529113033 59 230 1.0 4.0 0.00 0.00 0.00 88 1009.4
20220529111538 58 165 2.0 5.0 0.00 0.00 0.00 88 1009.4
20220529110041 58 210 1.0 4.0 0.00 0.00 0.00 89 1009.3
20220529104531 58 195 2.0 4.0 0.00 0.00 0.00 89 1009.1
20220529103029 58 146 2.0 5.0 0.00 0.00 0.00 89 1009.1
20220529101527 58 155 1.0 6.0 0.00 0.00 0.00 89 1009.2
20220529100031 58 0 1.0 3.0 0.00 0.00 0.00 89 1009.3
20220529094544 58 179 0.0 2.0 0.00 0.00 0.00 89 1009.3
20220529093030 58 172 1.0 3.0 0.00 0.00 0.00 89 1009.5
20220529091528 57 0 0.0 2.0 0.00 0.00 0.00 88 1009.6
20220529090031 57 153 1.0 2.0 0.00 0.00 0.00 87 1009.5
20220529084530 58 192 1.0 3.0 0.00 0.00 0.00 87 1009.4
20220529083030 57 195 1.0 2.0 0.00 0.00 0.00 86 1009.4
20220529081535 57 193 1.0 3.0 0.00 0.00 0.00 85 1009.3
20220529080039 58 165 1.0 3.0 0.00 0.00 0.00 84 1009.3
20220529074536 58 233 1.0 3.0 0.00 0.00 0.00 83 1009.4
20220529073026 58 185 1.0 3.0 0.00 0.00 0.00 82 1009.7
20220529071533 59 148 1.0 4.0 0.00 0.00 0.00 81 1009.6
20220529070044 59 232 2.0 4.0 0.00 0.00 0.00 81 1009.8
20220529064529 59 212 1.0 4.0 0.00 0.00 0.00 80 1009.9
20220529063038 58 182 1.0 3.0 0.00 0.00 0.00 80 1009.9
20220529061529 58 191 2.0 4.0 0.00 0.00 0.00 81 1010.0
20220529060027 57 148 0.0 1.0 0.00 0.00 0.00 82 1010.0
20220529054529 57 0 0.0 1.0 0.00 0.00 0.00 80 1010.3
20220529053029 57 0 0.0 2.0 0.00 0.00 0.00 79 1010.4
20220529051529 57 110 0.0 4.0 0.00 0.00 0.00 78 1010.4
20220529050037 57 122 0.0 1.0 0.00 0.00 0.00 78 1010.5
20220529044530 57 38 0.0 4.0 0.00 0.00 0.00 77 1010.6
20220529043045 57 228 1.0 6.0 0.00 0.00 0.00 76 1010.6
20220529041535 57 129 2.0 4.0 0.00 0.00 0.00 76 1010.5
20220529040040 57 152 1.0 4.0 0.00 0.00 0.00 76 1010.4
20220529034526 58 157 1.0 3.0 0.00 0.00 0.00 75 1010.8
20220529033041 58 117 2.0 3.0 0.00 0.00 0.00 75 1010.5
20220529031531 58 155 1.0 8.0 0.00 0.00 0.00 74 1010.6
20220529030056 58 0 0.0 3.0 0.00 0.00 0.00 73 1010.6
20220529024537 59 129 0.0 3.0 0.00 0.00 0.00 73 1010.4
20220529023028 59 226 2.0 6.0 0.00 0.00 0.00 71 1010.2
20220529021542 60 179 1.0 7.0 0.00 0.00 0.00 70 1010.0
20220529020027 60 160 2.0 7.0 0.00 0.00 0.00 70 1009.8
20220529014533 61 158 2.0 5.0 0.00 0.00 0.00 69 1009.6
20220529013034 62 140 2.0 5.0 0.00 0.00 0.00 68 1009.5
20220529011532 63 127 3.0 6.0 0.00 0.00 0.00 66 1009.4
20220529010042 65 159 2.0 10.0 0.00 0.00 0.00 65 1009.4
20220529004533 66 162 3.0 6.0 0.00 0.00 0.00 64 1009.3
20220529003026 66 205 4.0 10.0 0.00 0.00 0.00 64 1009.3
20220529001528 65 157 4.0 12.0 0.00 0.00 0.00 64 1009.4
20220529000031 65 182 5.0 9.0 0.00 0.00 0.00 64 1009.6
20220528234528 65 204 3.0 9.0 0.00 0.00 0.00 64 1009.6
20220528233030 65 156 4.0 10.0 0.00 0.00 0.00 63 1009.8
20220528231545 65 170 3.0 7.0 0.00 0.00 0.00 61 1010.0
20220528230038 66 150 5.0 9.0 0.00 0.00 0.00 59 1010.0
20220528224534 67 190 4.0 12.0 0.00 0.00 0.00 59 1010.0
20220528223033 67 196 2.0 9.0 0.00 0.00 0.00 59 1009.9
20220528221535 67 224 5.0 12.0 0.00 0.00 0.00 57 1009.9
20220528220032 67 150 4.0 10.0 0.00 0.00 0.00 58 1010.0
20220528214527 68 149 5.0 14.0 0.00 0.00 0.00 58 1009.8
20220528213035 68 141 7.0 15.0 0.00 0.00 0.00 59 1009.5
20220528211528 69 248 4.0 14.0 0.00 0.00 0.00 61 1010.3
20220528210031 70 125 5.0 9.0 0.00 0.00 0.00 59 1010.4
20220528204538 71 210 3.0 10.0 0.00 0.00 0.00 60 1011.1
20220528203035 72 120 6.0 12.0 0.00 0.00 0.00 59 1011.2
20220528201536 72 96 6.0 10.0 0.00 0.00 0.00 59 1011.5
20220528200039 71 205 4.0 8.0 0.00 0.00 0.00 60 1011.9
20220528194533 71 251 5.0 11.0 0.00 0.00 0.00 61 1012.1
20220528193054 71 235 4.0 14.0 0.00 0.00 0.00 59 1011.7
20220528191529 72 201 5.0 9.0 0.00 0.00 0.00 57 1010.9
20220528190027 72 163 4.0 12.0 0.00 0.00 0.00 57 1011.6
20220528184528 73 182 3.0 8.0 0.00 0.00 0.00 57 1012.2
20220528183041 72 231 6.0 12.0 0.00 0.00 0.00 58 1012.4
20220528181530 71 248 6.0 15.0 0.00 0.00 0.00 60 1012.6
20220528180024 72 203 2.0 10.0 0.00 0.00 0.00 60 1012.8
20220528174528 72 222 3.0 9.0 0.00 0.00 0.00 60 1013.3
20220528173027 71 233 4.0 17.0 0.00 0.00 0.00 59 1013.3
20220528171527 71 219 6.0 12.0 0.00 0.00 0.00 60 1013.4
20220528170038 71 150 4.0 9.0 0.00 0.00 0.00 59 1013.3
20220528164528 70 248 6.0 13.0 0.00 0.00 0.00 61 1013.4
20220528163028 69 274 5.0 9.0 0.00 0.00 0.00 64 1013.3
20220528161529 69 202 5.0 12.0 0.00 0.00 0.00 65 1013.4
20220528160026 68 257 6.0 14.0 0.00 0.00 0.00 70 1013.3
20220528154533 67 263 6.0 11.0 0.00 0.00 0.00 71 1013.3
20220528153034 66 235 4.0 12.0 0.00 0.00 0.00 73 1013.2
20220528151532 66 194 3.0 7.0 0.00 0.00 0.00 74 1013.2
20220528150030 65 169 3.0 11.0 0.00 0.00 0.00 74 1013.2
20220528144529 64 231 3.0 7.0 0.00 0.00 0.00 75 1012.9
20220528143034 63 238 4.0 8.0 0.00 0.00 0.00 77 1013.0
20220528141534 63 214 3.0 8.0 0.00 0.00 0.00 76 1012.9
20220528140028 63 220 2.0 8.0 0.00 0.00 0.00 78 1012.9
20220528134528 61 197 3.0 7.0 0.00 0.00 0.00 79 1013.0
20220528133044 60 178 3.0 7.0 0.00 0.00 0.00 81 1013.3
20220528131534 59 264 3.0 6.0 0.00 0.00 0.00 83 1013.5
20220528130032 58 270 3.0 11.0 0.00 0.00 0.00 84 1013.6
20220528124602 57 267 3.0 8.0 0.00 0.00 0.00 88 1013.8
20220528123037 55 219 2.0 6.0 0.00 0.00 0.00 90 1013.7
20220528121601 54 263 2.0 5.0 0.00 0.00 0.00 91 1013.7
20220528120027 53 172 1.0 4.0 0.00 0.00 0.00 93 1013.6
20220528114549 52 260 2.0 3.0 0.00 0.00 0.00 94 1013.7